GONETS-M 19 (46488 NORAD) Tracking and Keplerian Element Data

This shows tracking and keplerian element data for the satellite.

Feedback or suggestion? Click here.




ElementValue
Catalog46488
NameGONETS-M 19
Epoch Orbit748
Epoch Day332.66761709
Epoch Year2020
RAAN168.6952
Inclination82.4952
Eccentricity0.001421
Argument of Perigee147.6575
Mean Anonmoly212.5383
Mean Motion12.42871379
Decay Rate3.8E-07
L11 46488U 20068C 20332.66761709 .00000038 00000-0 20121-3 0 9998
L22 46488 82.4952 168.6952 0014210 147.6575 212.5383 12.42871379 7489

Live tracking and technical data element details for GONETS-M 19 (NORAD 46488). GONETS-M 19 can be tracked NOW for your location showing map with azimuth and elevation plus other details from your city location.

Track the satellite on the map from your city or location and see movement details for azimuth, elevation, latitude, longitude, range, height, and movement on the map or in text.







IsCatalogInMostPopularTable: catalog: 46488, numindb: 14
Update: records affected: 1



GetName: 46488 GONETS-M 19

Hit Count: updated at: Sun, 29 Nov 2020 10:47:36 GMT